14.1,99.9,1018.9,202107090030
14.0,99.9,1018.7,202107090100
14.0,99.9,1018.3,202107090130
13.7,99.9,1018.1,202107090200
13.6,99.9,1018.1,202107090230
13.4,99.9,1018.2,202107090300
13.1,99.9,1018.2,202107090330
13.2,99.9,1018.2,202107090400
13.4,99.9,1018.7,202107090430
13.3,99.9,1018.7,202107090500
13.2,99.9,1019.1,202107090530
13.1,99.9,1019.2,202107090600
13.1,99.9,1019.6,202107090630
13.2,99.9,1019.8,202107090700
13.2,99.9,1020.0,202107090730
13.3,99.9,1020.0,202107090800
13.6,99.9,1020.2,202107090830
13.8,99.9,1020.6,202107090900
14.1,99.9,1020.9,202107090930
14.6,99.9,1021.1,202107091000
14.7,99.9,1021.3,202107091030
14.7,99.9,1021.4,202107091100
14.4,99.9,1021.7,202107091130
14.4,99.9,1021.6,202107091200
16.4,99.9,1021.6,202107091230
16.8,99.9,1021.5,202107091300
16.8,99.9,1021.7,202107091330
17.7,99.9,1021.7,202107091400
17.2,99.9,1021.6,202107091430
17.6,99.9,1021.5,202107091500
17.1,99.9,1021.5,202107091530
17.3,99.9,1021.2,202107091600
17.3,99.9,1021.5,202107091630
17.9,99.9,1021.3,202107091700
17.7,99.9,1021.3,202107091730
17.5,99.9,1021.5,202107091800
16.8,99.9,1021.6,202107091830
16.0,99.9,1021.9,202107091900
15.8,99.9,1022.1,202107091930
15.5,99.9,1022.3,202107092000
15.5,99.9,1022.2,202107092030
15.4,99.9,1022.1,202107092100
15.2,99.9,1022.2,202107092130
15.0,99.9,1022.4,202107092200
14.9,99.9,1022.4,202107092230
14.6,99.9,1022.4,202107092300
14.6,99.9,1022.3,202107092330
14.3,99.9,1022.1,202107100000
14.3,99.9,1021.7,202107100030
14.3,99.9,1021.5,202107100100
14.2,99.9,1021.3,202107100130
14.2,99.9,1021.1,202107100200
14.0,99.9,1020.7,202107100230
14.0,99.9,1020.7,202107100300
14.0,99.9,1020.5,202107100330
14.2,99.9,1020.5,202107100400
15.4,99.9,1020.4,202107100430
15.3,99.9,1020.4,202107100500
15.9,99.9,1020.4,202107100530
16.5,99.9,1020.5,202107100600
17.9,93.9,1020.6,202107100630
18.0,89.4,1020.7,202107100700
15.3,99.9,1020.5,202107100730
15.9,99.9,1020.5,202107100800
15.6,99.9,1020.2,202107100830
19.2,79.8,1020.0,202107100900
18.6,99.9,1019.8,202107100930
18.6,94.9,1019.3,202107101000
18.7,79.8,1019.2,202107101030
18.8,62.7,1019.0,202107101100
19.2,54.0,1018.6,202107101130
19.2,54.9,1018.2,202107101200
20.2,39.7,1017.9,202107101230
20.2,45.0,1017.8,202107101300
20.6,36.2,1017.4,202107101330
21.0,30.6,1016.9,202107101400
21.1,33.7,1016.9,202107101430
21.3,35.4,1016.7,202107101500
21.4,33.5,1016.7,202107101530
21.6,36.2,1016.2,202107101600
21.5,31.6,1016.2,202107101630
21.5,32.7,1016.1,202107101700
21.2,34.7,1015.8,202107101730
21.1,35.5,1015.7,202107101800
21.1,40.7,1015.8,202107101830
20.7,38.7,1015.7,202107101900
20.6,41.9,1015.9,202107101930
20.5,42.5,1015.9,202107102000
20.2,46.5,1015.6,202107102030
20.1,49.2,1015.8,202107102100
20.1,47.7,1015.7,202107102130
20.2,45.7,1015.6,202107102200
20.0,48.7,1015.8,202107102230
19.6,53.9,1016.3,202107102300
18.2,73.9,1016.9,202107102330
17.0,99.9,1017.7,202107110000
